Location: Villingen
(48.0639°N, 8.4609°E)
Time: 16:16:52
(UTC+02:00)

ISS - Visible Passes

Search period start: 18 May 2021 00:00
Search period end: 28 May 2021 00:00
Orbit: 417 x 422 km, 51.6° (Epoch: 18 May)

Date Brightness Start Highest point End Pass type
(mag) Time Alt. Az. Time Alt. Az. Time Alt. Az.
18 May -2.9 01:18:51 10° WNW 01:22:09 49° N 01:22:53 40° NE visible
18 May -1.0 02:55:43 10° WNW 02:55:46 10° WNW 02:55:46 10° WNW visible
18 May -3.1 22:54:08 10° W 22:57:27 58° NNW 23:00:48 10° ENE visible
19 May -2.6 00:31:21 10° WNW 00:34:36 44° N 00:36:27 22° ENE visible
19 May -1.7 02:08:13 10° WNW 02:09:22 20° WNW 02:09:22 20° WNW visible
19 May -3.5 22:06:35 10° WSW 22:09:57 73° NNW 22:13:20 10° ENE visible
19 May -2.5 23:43:48 10° WNW 23:47:03 43° N 23:50:16 10° ENE visible
20 May -2.9 01:20:45 10° WNW 01:23:12 44° NW 01:23:12 44° NW visible
20 May -2.6 22:56:14 10° W 22:59:30 44° N 23:02:45 10° ENE visible
21 May -3.3 00:33:17 10° WNW 00:36:38 59° NNE 00:37:06 52° NE visible
21 May -2.7 22:08:39 10° W 22:11:56 49° N 22:15:13 10° ENE visible
21 May -2.9 23:45:47 10° WNW 23:49:06 50° N 23:51:03 21° ENE visible
22 May -1.8 01:22:40 10° WNW 01:23:59 21° W 01:23:59 21° W visible
22 May -2.7 22:58:16 10° WNW 23:01:32 45° N 23:04:47 10° E visible
23 May -3.4 00:35:09 10° WNW 00:37:58 58° W 00:37:58 58° W visible
23 May -2.6 22:10:43 10° WNW 22:13:57 43° N 22:17:13 10° ENE visible
23 May -3.7 23:47:40 10° WNW 23:51:02 76° NNE 23:51:59 44° E visible
24 May -1.0 01:24:48 10° W 01:24:55 11° W 01:24:55 11° W visible
24 May -3.3 23:00:11 10° WNW 23:03:32 59° NNE 23:06:00 17° E visible
25 May -2.2 00:37:07 10° WNW 00:38:57 25° W 00:38:57 25° W visible
25 May -2.9 22:12:41 10° WNW 22:15:59 50° N 22:19:16 10° E visible
25 May -3.7 23:49:33 10° WNW 23:52:51 55° SSW 23:53:00 54° SSW visible
26 May -3.8 23:02:01 10° WNW 23:05:24 79° SSW 23:07:06 27° ESE visible
27 May -1.1 00:39:35 10° W 00:40:02 12° WSW 00:40:02 12° WSW visible
27 May -3.6 22:14:32 10° WNW 22:17:54 76° NNE 22:21:12 10° ESE visible
27 May -2.3 23:51:39 10° W 23:54:09 24° SW 23:54:09 24° SW visible
